Location: Wildlife_Club
(35.6000°N, 81.4330°W)
Time: 19:29:37
(UTC-04:00)

Vanguard 2 Rocket - Pass Details

Date: 19 June 2019
Orbit: 554 x 3326 km, 32.9° (Epoch: 12 October)

Event Time Altitude Azimuth Distance (km) Brightness Sun altitude
Rises 00:31:26 0° 252° (WSW) 4,471 10.4 -29.5°
Reaches altitude 10° 00:33:53 10° 251° (WSW) 3,777 10.0 -29.7°
Maximum altitude 00:44:28 76° 167° (SSE) 2,361 8.6 -30.1°
Drops below altitude 10° 01:02:35 10° 87° (E) 6,079 11.0 -30.7°
Sets 01:07:46 0° 86° (E) 7,256 11.5 -30.8°
